Wind_Speed
100 101 85 84 88 87 91 89 88 87 82 74 85 94 98 108 110 114 117 116 113 111 110 109 106 107 105 103 100 99 99 101 98 97 97 96 97 98 98 97 97 95 95 97
100 91 90 96 96 93 91 91 87 89 87 84 82 84 86 91 104 107 107 109 110 107 109 110 112 109 107 108 108 108 107 105 104 103 105 105 104 103 103 102 102 101 101 100
95 90 98 94 96 95 94 91 90 91 89 90 90 88 83 81 91 97 100 107 109 107 105 104 105 109 112 110 111 112 112 111 110 106 107 109 109 109 109 109 106 106 106 105
84 90 92 96 95 99 98 94 95 95 94 93 95 88 84 78 83 84 90 91 98 103 104 103 106 109 108 110 112 111 112 111 110 110 110 110 110 111 112 111 110 109 107 108
77 91 89 97 89 97 94 102 98 96 96 99 98 93 85 79 83 81 83 86 82 83 91 96 100 104 105 109 109 110 111 113 112 112 112 112 112 112 112 111 114 114 112 111
74 85 85 77 91 100 107 109 105 102 100 101 92 92 91 82 81 82 81 80 85 85 86 85 89 98 104 110 112 113 113 114 115 114 115 115 115 117 118 117 117 118 118 117
68 76 83 81 84 97 110 112 110 112 112 86 87 91 86 84 84 80 78 76 73 74 79 81 80 86 92 98 100 103 106 108 111 112 112 110 109 111 114 114 115 115 115 114
64 70 75 78 76 85 97 109 107 105 97 88 91 86 85 80 79 78 76 76 74 73 71 73 73 74 82 86 87 89 90 92 91 88 87 85 82 81 82 85 87 93 96 97
56 64 68 71 76 80 90 100 104 106 99 102 95 90 82 79 79 78 76 77 78 75 70 66 70 70 74 79 79 81 81 83 83 81 79 77 74 73 73 71 74 77 78 79
50 57 64 67 73 74 74 88 103 112 106 104 100 93 88 82 79 76 75 71 71 73 73 72 71 70 70 73 75 78 76 78 79 79 77 76 76 72 68 67 68 69 70 74
40 50 58 62 63 62 71 83 97 100 103 99 97 94 92 86 84 79 75 73 71 71 70 69 69 67 69 70 71 72 74 76 76 75 75 74 70 65 65 65 65 64 64 64
35 42 51 61 67 69 69 76 82 94 101 100 99 98 92 85 83 82 80 76 73 72 71 70 70 70 67 66 68 67 67 67 68 68 65 63 61 62 59 56 51 54 58 61
29 34 41 46 54 64 67 69 77 84 91 96 95 90 90 83 81 82 79 76 73 72 71 71 71 70 67 67 67 67 64 66 67 61 61 60 58 54 50 49 47 44 47 55
25 28 32 40 48 51 61 68 73 79 84 88 89 85 86 80 74 74 75 72 71 72 71 70 70 69 65 67 68 65 63 64 65 59 58 56 52 50 49 49 49 44 49 54
19 25 27 31 37 45 50 59 70 75 80 83 81 83 79 75 69 70 70 70 70 70 68 68 65 63 66 67 65 65 66 63 59 57 54 54 52 52 50 48 52 59 62 65
18 22 28 26 32 37 43 48 57 69 78 78 75 77 77 72 69 69 68 68 69 69 65 64 64 64 66 66 65 66 64 62 58 53 52 52 48 47 47 49 53 51 55 57
16 24 25 23 25 28 29 34 39 51 63 67 71 74 72 70 68 66 67 67 67 65 62 61 62 61 63 61 65 65 59 57 52 49 51 50 48 48 51 52 52 53 57 61
16 25 27 23 22 22 26 30 37 43 51 57 60 63 66 67 69 66 64 63 62 61 58 60 62 63 58 62 60 54 53 51 51 49 45 45 47 48 50 50 54 57 61 64
12 16 27 29 25 25 26 30 34 41 45 47 43 49 56 58 59 59 60 57 56 55 56 57 58 57 55 54 49 47 46 46 46 44 42 42 46 49 53 57 58 61 66 70
14 18 24 19 27 27 29 33 37 44 48 48 41 40 44 46 45 49 50 51 53 53 53 54 53 49 47 45 42 42 43 43 43 46 49 50 53 55 57 59 65 67 67 66
22 26 19 18 21 27 24 26 37 40 39 49 52 53 53 51 49 50 50 51 51 50 50 51 48 46 43 39 41 44 44 44 46 46 48 50 54 58 61 61 66 66 67 68
21 22 23 20 24 30 33 40 41 41 48 47 47 49 50 52 51 51 51 50 50 50 49 47 43 39 39 42 45 46 46 48 50 52 52 53 54 57 58 61 66 69 73 69
18 28 31 29 33 36 38 43 44 44 48 47 46 45 45 45 47 49 48 44 42 40 38 39 37 40 43 44 47 47 47 47 46 48 50 52 55 58 62 66 72 72 68 54
28 31 33 33 34 37 37 37 35 35 36 40 42 40 38 37 36 33 31 30 31 31 31 33 36 38 41 43 43 44 43 41 44 49 53 58 61 64 68 71 69 62 50 40
33 35 35 34 32 33 32 31 32 34 33 35 35 35 38 37 36 34 32 31 32 32 33 34 36 38 40 41 41 43 43 47 53 55 58 62 67 67 64 57 52 41 33 26
33 36 35 32 31 29 29 32 34 37 37 37 31 27 31 39 34 32 32 31 31 33 34 35 37 40 42 41 44 45 49 51 52 58 59 58 57 44 41 38 34 28 21 15
Wind_Direction
237 231 230 227 228 222 224 226 228 227 223 221 227 230 233 235 234 236 237 238 239 240 241 243 246 248 250 250 251 251 252 255 257 259 260 261 263 266 268 270 272 274 274 276
245 242 227 224 223 222 222 220 223 224 222 221 224 224 227 232 235 236 237 238 239 240 242 244 246 248 250 251 252 254 254 255 256 259 261 261 263 266 268 269 271 272 272 274
248 238 229 225 220 219 219 219 221 225 224 223 223 225 225 229 233 234 237 239 239 240 243 244 244 246 248 250 251 253 255 257 257 259 261 262 265 267 268 269 272 272 273 273
241 240 232 226 219 216 216 218 218 220 222 221 221 222 223 226 231 235 236 238 240 241 240 241 242 241 243 246 249 253 255 256 257 258 259 262 264 265 266 267 269 270 272 273
232 237 232 226 222 217 213 219 216 217 221 221 220 221 225 226 232 234 238 239 241 240 239 239 242 244 245 246 248 250 253 255 257 259 261 262 263 263 264 266 267 268 269 270
226 230 232 226 223 215 214 215 216 214 219 220 220 222 224 224 229 232 235 238 242 244 245 244 245 248 249 250 250 252 253 255 257 258 260 262 263 264 266 267 268 268 269 270
221 225 228 224 221 216 214 215 214 215 217 214 220 222 225 224 228 229 232 234 236 239 242 243 244 245 248 252 253 255 257 259 261 263 265 267 269 270 270 270 270 272 271 273
222 222 225 224 221 220 218 217 218 219 217 215 217 219 224 224 228 231 233 235 236 238 241 242 245 247 251 251 252 256 259 260 263 265 267 269 270 270 271 273 274 273 273 270
220 222 222 221 221 220 221 217 217 217 214 215 213 216 219 223 227 231 233 235 237 240 242 247 248 249 252 255 258 259 261 264 267 268 270 271 272 274 274 274 273 270 268 266
217 216 217 218 222 219 217 218 217 215 212 215 213 214 216 219 222 229 232 235 237 238 240 243 246 250 254 258 260 263 264 266 267 269 272 272 275 278 277 273 271 269 265 264
213 216 215 213 218 219 218 217 216 214 214 213 214 214 215 217 220 224 229 233 236 239 241 243 245 248 254 258 262 263 267 267 268 271 273 276 279 275 272 271 266 265 265 265
208 212 216 215 214 213 213 213 215 217 213 212 214 216 215 217 222 225 229 231 234 238 241 243 246 250 254 256 259 263 262 266 270 273 273 273 275 276 274 271 269 269 269 269
197 206 211 215 216 217 214 213 214 210 210 213 214 214 216 216 220 224 227 231 236 240 243 246 249 252 252 255 258 259 260 267 271 272 273 274 274 273 271 272 269 265 271 275
188 193 201 208 205 210 216 213 209 211 211 210 212 213 212 214 220 225 228 230 234 238 242 246 250 253 252 254 255 257 260 267 274 273 272 273 272 271 270 267 263 264 268 269
177 181 186 193 203 204 207 210 211 210 209 209 207 209 210 212 216 222 226 230 233 238 241 245 247 252 252 253 255 256 263 267 268 269 269 269 269 272 272 271 273 261 258 259
167 162 166 180 191 197 200 204 207 209 209 208 208 207 209 213 217 221 226 230 233 237 242 247 249 249 251 253 258 260 264 267 269 265 265 268 274 278 277 277 279 279 279 282
136 153 153 170 182 187 189 193 197 202 205 206 211 214 215 221 224 226 228 232 235 238 243 245 248 247 249 254 257 262 266 267 267 267 265 264 273 276 274 278 281 281 287 288
112 143 144 156 156 161 167 175 180 187 193 196 201 210 213 219 223 226 230 232 234 238 240 242 244 247 250 255 261 261 259 261 265 266 267 268 272 275 277 278 282 285 285 288
121 125 148 157 155 162 162 163 167 172 172 177 189 201 207 213 219 222 227 232 236 236 239 241 246 249 253 257 257 258 261 265 266 264 264 269 274 274 277 281 283 283 283 284
137 125 137 155 166 157 159 161 162 164 159 158 177 182 193 202 209 215 220 226 231 235 236 243 247 249 253 252 253 256 263 267 267 269 268 268 270 273 276 278 279 282 286 290
131 128 127 143 162 157 159 164 163 160 166 175 176 177 183 191 200 206 211 219 226 230 236 241 245 245 247 254 256 263 266 266 268 267 269 273 275 276 277 278 280 285 288 291
131 141 141 141 155 157 160 160 157 162 172 176 182 186 192 196 203 209 215 222 227 230 231 233 238 245 248 249 254 261 264 266 269 272 275 277 275 275 278 282 284 289 294 297
137 149 139 143 152 154 155 161 167 168 172 176 181 187 194 201 206 211 216 218 222 232 233 236 241 244 248 254 259 263 267 270 271 271 273 274 276 277 281 285 288 294 294 296
140 139 131 135 142 150 163 170 170 170 173 178 176 182 190 195 198 202 210 213 219 228 233 237 241 248 253 256 260 265 265 265 268 272 275 277 280 281 284 287 290 291 290 290
139 133 128 127 131 145 151 150 151 156 165 169 169 179 189 195 199 205 211 219 225 229 235 241 247 251 253 256 258 261 263 269 274 276 278 280 281 283 286 284 283 282 286 288
142 137 137 138 139 146 147 156 164 169 172 171 173 170 203 207 203 213 218 223 229 235 240 245 247 249 252 253 260 265 270 273 275 286 289 288 288 286 281 278 277 280 277 259
Height
10530 10539 10576 10602 10598 10608 10616 10633 10643 10650 10656 10664 10669 10678 10686 10697 10707 10721 10733 10746 10763 10776 10781 10787 10793 10799 10802 10807 10813 10817 10819 10819 10823 10825 10826 10827 10825 10826 10828 10831 10834 10839 10842 10840
10492 10527 10553 10546 10565 10583 10592 10610 10624 10629 10637 10649 10649 10661 10669 10676 10690 10704 10713 10725 10743 10752 10763 10772 10779 10783 10785 10787 10790 10793 10797 10802 10806 10811 10810 10807 10809 10810 10812 10813 10816 10818 10819 10820
10464 10500 10503 10519 10538 10557 10574 10593 10604 10611 10622 10629 10633 10643 10656 10660 10672 10687 10697 10705 10719 10733 10747 10755 10762 10765 10766 10767 10767 10769 10776 10783 10789 10796 10792 10792 10797 10797 10796 10797 10798 10797 10797 10799
10442 10457 10473 10491 10511 10531 10551 10567 10573 10587 10600 10611 10614 10632 10638 10646 10661 10673 10683 10691 10701 10716 10727 10735 10739 10743 10747 10745 10749 10757 10761 10766 10772 10776 10774 10778 10782 10781 10778 10779 10779 10777 10778 10778
10422 10422 10441 10461 10501 10514 10539 10530 10552 10566 10578 10582 10600 10612 10631 10638 10651 10661 10669 10681 10689 10697 10706 10714 10717 10722 10727 10732 10735 10739 10743 10746 10752 10756 10759 10761 10760 10759 10759 10762 10760 10759 10756 10756
10388 10398 10415 10458 10463 10483 10489 10501 10523 10543 10549 10558 10596 10608 10613 10634 10642 10648 10658 10667 10675 10684 10692 10699 10703 10707 10709 10713 10722 10725 10726 10729 10732 10735 10738 10743 10740 10739 10741 10742 10741 10736 10735 10735
10369 10380 10398 10422 10438 10456 10467 10484 10501 10513 10515 10585 10588 10596 10616 10624 10627 10638 10646 10655 10664 10670 10676 10683 10688 10693 10696 10698 10702 10705 10709 10712 10716 10720 10725 10726 10725 10722 10721 10720 10719 10716 10715 10713
10354 10367 10383 10405 10428 10446 10465 10475 10501 10522 10551 10577 10572 10588 10598 10615 10619 10628 10637 10645 10651 10656 10665 10671 10675 10678 10681 10685 10688 10689 10695 10699 10704 10707 10707 10707 10707 10706 10704 10703 10701 10698 10695 10694
10342 10355 10372 10390 10405 10423 10438 10460 10492 10501 10530 10527 10554 10567 10588 10600 10606 10615 10626 10633 10640 10647 10653 10659 10662 10665 10666 10670 10672 10675 10679 10683 10687 10689 10690 10691 10690 10688 10687 10685 10681 10680 10677 10675
10331 10340 10355 10374 10386 10404 10434 10444 10450 10470 10497 10518 10542 10557 10569 10581 10593 10601 10611 10621 10628 10635 10641 10644 10648 10651 10653 10655 10659 10662 10665 10667 10669 10672 10674 10673 10673 10673 10671 10668 10665 10663 10662 10661
10324 10335 10345 10362 10381 10402 10412 10425 10444 10471 10489 10509 10530 10544 10554 10567 10577 10587 10596 10606 10614 10621 10627 10632 10637 10640 10642 10644 10648 10650 10652 10653 10656 10658 10658 10658 10659 10657 10655 10653 10651 10649 10648 10647
10320 10329 10339 10350 10362 10378 10394 10411 10432 10453 10482 10501 10512 10528 10544 10557 10570 10577 10583 10592 10600 10607 10614 10620 10625 10629 10633 10633 10635 10639 10640 10641 10642 10643 10643 10645 10646 10644 10642 10639 10637 10636 10634 10634
10319 10326 10336 10348 10362 10375 10388 10405 10426 10443 10458 10477 10503 10521 10534 10546 10553 10562 10572 10581 10590 10597 10604 10609 10612 10618 10621 10622 10625 10627 10628 10629 10629 10631 10632 10632 10632 10631 10629 10627 10626 10626 10624 10621
10317 10326 10334 10342 10350 10364 10382 10398 10415 10431 10452 10472 10489 10510 10523 10532 10544 10554 10562 10570 10577 10584 10591 10597 10601 10605 10609 10611 10613 10616 10618 10618 10619 10619 10619 10619 10619 10620 10619 10619 10617 10617 10616 10613
10320 10327 10334 10341 10351 10360 10371 10386 10403 10423 10440 10457 10481 10494 10509 10520 10531 10541 10549 10557 10565 10571 10580 10585 10590 10593 10596 10599 10602 10606 10607 10608 10608 10608 10608 10607 10608 10609 10609 10609 10608 10606 10602 10600
10325 10331 10336 10341 10349 10359 10369 10381 10395 10409 10428 10453 10473 10484 10496 10508 10520 10531 10540 10547 10553 10560 10570 10576 10580 10583 10586 10587 10591 10595 10597 10598 10598 10598 10598 10597 10598 10597 10597 10597 10596 10594 10593 10590
10331 10336 10340 10346 10353 10361 10371 10381 10394 10408 10424 10450 10461 10475 10491 10501 10514 10525 10530 10538 10545 10553 10559 10565 10569 10572 10574 10577 10581 10585 10587 10587 10588 10589 10588 10588 10587 10587 10587 10585 10583 10581 10578 10576
10336 10341 10346 10352 10359 10366 10373 10381 10390 10403 10423 10440 10450 10462 10480 10492 10501 10511 10521 10529 10536 10544 10550 10554 10557 10563 10567 10568 10573 10575 10575 10576 10577 10578 10577 10577 10577 10576 10574 10572 10571 10568 10565 10561
10342 10348 10352 10358 10364 10371 10377 10385 10396 10409 10425 10437 10452 10460 10473 10483 10495 10505 10512 10521 10528 10535 10539 10544 10549 10556 10559 10561 10563 10564 10565 10566 10566 10566 10566 10565 10564 10563 10561 10559 10556 10553 10550 10547
10348 10352 10359 10367 10370 10378 10385 10391 10400 10410 10423 10438 10449 10459 10472 10481 10489 10498 10507 10513 10520 10526 10530 10538 10543 10547 10550 10551 10553 10556 10556 10556 10555 10555 10554 10554 10553 10552 10549 10546 10542 10540 10537 10533
10353 10357 10364 10371 10376 10383 10390 10397 10406 10418 10428 10435 10446 10457 10467 10477 10485 10493 10500 10506 10515 10519 10526 10530 10535 10539 10541 10544 10545 10545 10545 10544 10544 10543 10543 10543 10541 10539 10535 10532 10528 10526 10523 10519
10358 10362 10367 10374 10379 10386 10392 10400 10410 10420 10428 10436 10447 10456 10465 10473 10482 10490 10497 10504 10509 10515 10520 10524 10529 10533 10535 10535 10535 10536 10536 10535 10535 10534 10534 10532 10528 10524 10523 10520 10514 10511 10507 10502
10365 10366 10370 10375 10381 10389 10398 10406 10412 10420 10429 10439 10447 10457 10466 10474 10481 10487 10495 10501 10506 10510 10515 10520 10524 10524 10526 10526 10526 10527 10526 10526 10525 10523 10521 10519 10515 10512 10509 10506 10502 10498 10493 10489
10368 10373 10377 10382 10388 10396 10404 10410 10418 10427 10436 10443 10451 10459 10467 10473 10480 10487 10492 10497 10502 10507 10510 10513 10514 10516 10517 10517 10518 10517 10516 10514 10513 10511 10509 10506 10503 10500 10497 10493 10489 10484 10479 10478
10375 10380 10386 10390 10397 10404 10411 10419 10426 10433 10440 10447 10454 10461 10467 10472 10478 10484 10489 10494 10497 10501 10503 10505 10506 10507 10508 10507 10506 10505 10505 10503 10502 10499 10495 10492 10488 10485 10482 10477 10475 10472 10470 10468
10382 10386 10392 10398 10404 10410 10417 10424 10430 10437 10442 10450 10457 10464 10464 10470 10475 10481 10485 10489 10492 10494 10496 10497 10498 10498 10497 10497 10497 10496 10494 10492 10488 10485 10481 10476 10471 10469 10466 10464 10462 10461 10461 10461